When you browse on this site, cookies collect data to enhance your experience and personalize the content and advertising you see.
Visit our Privacy Policy to learn more. By continuing to use the site, you agree to this use of cookies and data.
  • In Switzerland
  • List of Countries
  • For 7 days
  • Water Temperature
  • Satellite Maps
  • Weather Map
  • Weather Widgets
  • user-avatar
    Login

    Hourly Weather Tomaryne

    Today, 21 February, Thursday

    Time Temperature Precipitation Wind Pressure Humidity
    00:00 +4°C° 0 mm 3 mps 758 mmHg 89%
    01:00 +3°C° 0 mm 3 mps 758 mmHg 89%
    02:00 +2°C° 0 mm 3 mps 758 mmHg 89%
    03:00 +2°C° 0 mm 3 mps 758 mmHg 89%
    04:00 +2°C° 0 mm 3 mps 758 mmHg 88%
    05:00 0°C° 0 mm 4 mps 759 mmHg 87%
    06:00 0°C° 0 mm 4 mps 759 mmHg 86%
    07:00 +1°C° 0 mm 5 mps 759 mmHg 84%
    08:00 +1°C° 0 mm 5 mps 759 mmHg 83%
    09:00 +2°C° 0 mm 6 mps 759 mmHg 74%
    10:00 +4°C° 0 mm 7 mps 759 mmHg 64%
    11:00 +5°C° 0 mm 8 mps 759 mmHg 55%
    12:00 +5°C° 0 mm 8 mps 759 mmHg 52%
    13:00 +5°C° 0 mm 8 mps 759 mmHg 48%
    14:00 +5°C° 0 mm 8 mps 759 mmHg 45%
    15:00 +5°C° 0 mm 7 mps 759 mmHg 46%
    16:00 +4°C° 0 mm 6 mps 759 mmHg 46%
    17:00 +3°C° 0 mm 6 mps 760 mmHg 47%
    18:00 +3°C° 0 mm 4 mps 760 mmHg 50%
    19:00 +3°C° 0 mm 3 mps 760 mmHg 54%
    20:00 +3°C° 0 mm 2 mps 761 mmHg 57%
    21:00 +2°C° 0 mm 2 mps 761 mmHg 58%
    22:00 +2°C° 0 mm 2 mps 761 mmHg 59%
    23:00 +2°C° 0 mm 2 mps 761 mmHg 60%

    Tomorrow, 22 February, Friday

    Time Temperature Precipitation Wind Pressure Humidity
    00:00 +1°C° 0 mm 2 mps 761 mmHg 62%
    01:00 +1°C° 0 mm 2 mps 761 mmHg 64%
    02:00 +1°C° 0 mm 2 mps 761 mmHg 66%
    03:00 -1°C° 0 mm 2 mps 761 mmHg 68%
    04:00 +1°C° 0 mm 1 mps 760 mmHg 69%
    05:00 +1°C° 0 mm 1 mps 760 mmHg 70%
    06:00 +1°C° 0.1 mm 1 mps 760 mmHg 70%
    07:00 +1°C° 0.1 mm 1 mps 760 mmHg 69%
    08:00 +1°C° 0.1 mm 2 mps 760 mmHg 68%
    09:00 -1°C° 0.7 mm 3 mps 760 mmHg 76%
    10:00 -1°C° 0.7 mm 3 mps 760 mmHg 83%
    11:00 -3°C° 0.7 mm 4 mps 759 mmHg 90%
    12:00 -4°C° 0.9 mm 5 mps 759 mmHg 90%
    13:00 -5°C° 0.9 mm 5 mps 759 mmHg 90%
    14:00 -5°C° 0.9 mm 6 mps 758 mmHg 91%
    15:00 -6°C° 0.9 mm 6 mps 758 mmHg 91%
    16:00 -7°C° 0.9 mm 7 mps 758 mmHg 92%
    17:00 -8°C° 0.9 mm 7 mps 759 mmHg 92%
    18:00 -8°C° 0.5 mm 7 mps 759 mmHg 89%
    19:00 -10°C° 0.5 mm 8 mps 760 mmHg 86%
    20:00 -10°C° 0.5 mm 8 mps 760 mmHg 83%
    21:00 -11°C° 0.1 mm 7 mps 761 mmHg 81%
    22:00 -11°C° 0.1 mm 7 mps 761 mmHg 78%
    23:00 -12°C° 0.1 mm 7 mps 762 mmHg 75%

    Day after tomorrow, 23 February, Saturday

    Time Temperature Precipitation Wind Pressure Humidity
    00:00 -13°C° 0 mm 7 mps 762 mmHg 75%
    01:00 -12°C° 0 mm 6 mps 762 mmHg 76%
    02:00 -14°C° 0 mm 6 mps 763 mmHg 77%
    03:00 -14°C° 0 mm 6 mps 763 mmHg 78%
    04:00 -13°C° 0 mm 5 mps 763 mmHg 79%
    05:00 -13°C° 0 mm 5 mps 764 mmHg 80%
    06:00 -14°C° 0 mm 6 mps 764 mmHg 80%
    07:00 -12°C° 0 mm 6 mps 765 mmHg 80%
    08:00 -13°C° 0 mm 7 mps 765 mmHg 80%
    09:00 -12°C° 0 mm 7 mps 766 mmHg 77%
    10:00 -12°C° 0 mm 7 mps 766 mmHg 75%
    11:00 -11°C° 0 mm 7 mps 766 mmHg 73%
    12:00 -9°C° 0 mm 7 mps 766 mmHg 71%
    13:00 -9°C° 0 mm 7 mps 767 mmHg 70%
    14:00 -9°C° 0 mm 7 mps 767 mmHg 69%
    15:00 -9°C° 0 mm 6 mps 767 mmHg 70%
    16:00 -8°C° 0 mm 5 mps 767 mmHg 72%
    17:00 -10°C° 0 mm 5 mps 767 mmHg 73%
    18:00 -9°C° 0 mm 4 mps 768 mmHg 75%
    19:00 -10°C° 0 mm 4 mps 768 mmHg 78%
    20:00 -11°C° 0 mm 4 mps 768 mmHg 80%
    21:00 -11°C° 0 mm 4 mps 768 mmHg 82%
    22:00 -10°C° 0 mm 3 mps 769 mmHg 83%
    23:00 -10°C° 0 mm 3 mps 769 mmHg 85%

    24 February, Sunday

    Time Temperature Precipitation Wind Pressure Humidity
    00:00 -10°C° 0 mm 3 mps 769 mmHg 85%
    01:00 -10°C° 0 mm 3 mps 769 mmHg 85%
    02:00 -10°C° 0 mm 3 mps 769 mmHg 85%
    03:00 -10°C° 0 mm 3 mps 769 mmHg 86%
    04:00 -12°C° 0 mm 3 mps 769 mmHg 86%
    05:00 -12°C° 0 mm 3 mps 768 mmHg 86%
    06:00 -12°C° 0 mm 3 mps 769 mmHg 85%
    07:00 -11°C° 0 mm 4 mps 769 mmHg 84%
    08:00 -11°C° 0 mm 4 mps 769 mmHg 83%
    09:00 -10°C° 0 mm 4 mps 769 mmHg 81%
    10:00 -10°C° 0 mm 4 mps 769 mmHg 79%
    11:00 -9°C° 0 mm 4 mps 769 mmHg 77%
    12:00 -9°C° 0 mm 4 mps 769 mmHg 76%
    13:00 -8°C° 0 mm 4 mps 768 mmHg 76%
    14:00 -7°C° 0 mm 3 mps 768 mmHg 75%
    15:00 -7°C° 0 mm 3 mps 768 mmHg 76%
    16:00 -7°C° 0 mm 3 mps 768 mmHg 77%
    17:00 -6°C° 0 mm 2 mps 768 mmHg 78%
    18:00 -6°C° 0 mm 2 mps 768 mmHg 80%
    19:00 -7°C° 0 mm 2 mps 768 mmHg 83%
    20:00 -7°C° 0 mm 2 mps 768 mmHg 85%
    21:00 -8°C° 0 mm 2 mps 768 mmHg 86%
    22:00 -8°C° 0 mm 2 mps 768 mmHg 88%
    23:00 -8°C° 0 mm 2 mps 767 mmHg 89%

    25 February, Monday

    Time Temperature Precipitation Wind Pressure Humidity
    00:00 -9°C° 0 mm 2 mps 767 mmHg 90%
    01:00 -9°C° 0 mm 2 mps 767 mmHg 91%
    02:00 -9°C° 0 mm 2 mps 767 mmHg 92%
    03:00 -9°C° 0 mm 2 mps 766 mmHg 93%
    04:00 -9°C° 0 mm 2 mps 766 mmHg 94%
    05:00 -9°C° 0 mm 2 mps 765 mmHg 95%
    06:00 -8°C° 0 mm 1 mps 765 mmHg 94%
    07:00 -7°C° 0 mm 1 mps 765 mmHg 93%
    08:00 -7°C° 0 mm 1 mps 765 mmHg 92%
    09:00 -6°C° 0 mm 1 mps 764 mmHg 88%
    10:00 -6°C° 0 mm 2 mps 764 mmHg 84%
    11:00 -5°C° 0 mm 2 mps 764 mmHg 79%
    12:00 -5°C° 0.1 mm 2 mps 763 mmHg 78%
    13:00 -4°C° 0.1 mm 2 mps 762 mmHg 77%
    14:00 -4°C° 0.1 mm 2 mps 762 mmHg 75%
    15:00 -4°C° 0 mm 2 mps 761 mmHg 78%
    16:00 -4°C° 0 mm 2 mps 761 mmHg 81%
    17:00 -5°C° 0 mm 2 mps 761 mmHg 83%
    18:00 -5°C° 0 mm 2 mps 760 mmHg 85%
    19:00 -6°C° 0 mm 2 mps 760 mmHg 87%
    20:00 -7°C° 0 mm 2 mps 760 mmHg 88%
    21:00 -7°C° 0 mm 2 mps 759 mmHg 89%
    22:00 -7°C° 0 mm 2 mps 759 mmHg 89%
    23:00 -7°C° 0 mm 2 mps 759 mmHg 90%

    26 February, Tuesday

    Time Temperature Precipitation Wind Pressure Humidity
    00:00 -7°C° 0.1 mm 2 mps 758 mmHg 91%
    01:00 -6°C° 0.1 mm 2 mps 758 mmHg 93%
    02:00 -6°C° 0.1 mm 2 mps 757 mmHg 94%
    03:00 -5°C° 0 mm 2 mps 757 mmHg 95%
    04:00 -5°C° 0 mm 2 mps 757 mmHg 95%
    05:00 -5°C° 0 mm 2 mps 757 mmHg 96%
    06:00 -4°C° 0 mm 2 mps 757 mmHg 94%
    07:00 -4°C° 0 mm 3 mps 757 mmHg 93%
    08:00 -4°C° 0 mm 4 mps 757 mmHg 91%
    09:00 -4°C° 0.1 mm 5 mps 757 mmHg 88%
    10:00 -2°C° 0.1 mm 5 mps 756 mmHg 84%
    11:00 -3°C° 0.1 mm 6 mps 756 mmHg 80%
    12:00 -2°C° 0 mm 6 mps 756 mmHg 78%
    13:00 -2°C° 0 mm 6 mps 755 mmHg 76%
    14:00 -2°C° 0 mm 6 mps 755 mmHg 73%
    15:00 -1°C° 0 mm 5 mps 755 mmHg 75%
    16:00 -1°C° 0 mm 4 mps 754 mmHg 77%
    17:00 -1°C° 0 mm 4 mps 754 mmHg 79%
    18:00 -2°C° 0 mm 4 mps 754 mmHg 81%
    19:00 -2°C° 0 mm 4 mps 754 mmHg 83%
    20:00 -2°C° 0 mm 4 mps 754 mmHg 85%
    21:00 -2°C° 0 mm 4 mps 753 mmHg 87%
    22:00 -2°C° 0 mm 4 mps 752 mmHg 89%
    23:00 -2°C° 0 mm 4 mps 751 mmHg 91%
    Show more